Location: Arroyo del Puertecito
(34.1965°N, 106.9228°W)
Time: 20:09:32
(UTC+00:00)

Daily predictions for brighter satellites

Satellite Brightness Start Highest point End
(mag) Time Altitude Azimuth Time Altitude Azimuth Time Altitude Azimuth
ASTEX 1 4.5 12:02:06 10° NNE 12:06:47 44° E 12:11:28 10° SSE
Cosmos 1707 Rocket 3.6 12:11:02 60° NNE 12:11:41 73° E 12:15:58 10° SSE
ARIANE 5 R/B 4.3 12:08:03 10° NE 12:12:32 31° E 12:16:56 10° SSE
Okean 3 3.5 12:15:23 65° S 12:15:23 65° S 12:18:55 10° S
ATLAS 3B R/B 4.2 12:20:33 21° NNW 12:20:33 21° NNW 12:24:58 10° N
Thor Agena Rocket 3.9 12:15:01 10° N 12:25:10 10° SSW 12:19:01 46° NNW
Okean 2 3.2 12:20:27 75° NNE 12:20:44 83° E 12:24:40 10° S
CENTAUR R/B 4.2 12:13:23 10° NNW 12:21:38 47° NE 12:30:33 10° SE
Cosmos 2082 4.4 12:25:25 34° NNW 12:25:25 34° NNW 12:29:23 10° N
Cosmos 1470 Rocket 3.5 12:23:03 10° S 12:27:29 86° E 12:31:57 10° N
Cosmos 1862 Rocket 3.4 12:27:51 36° NNW 12:29:36 75° W 12:34:00 10° S
Cosmos 1072 Rocket 4.4 12:24:34 10° S 12:30:59 79° W 12:37:24 10° N
SKYMED 2 3.5 12:27:25 10° SSE 12:31:45 90° N 12:34:46 20° NNW
Gbstr 26 Del rocket 4.3 12:27:43 22° WSW 12:33:08 73° NW 12:40:25 10° NE
Cosmos 1513 Rocket 4.4 12:29:21 10° SSW 12:35:16 56° W 12:41:13 10° N
Cosmos 2285 Rocket 4.1 12:29:47 10° SSW 12:36:09 81° ESE 12:42:35 10° NNE
Cosmos 304 Rocket 3.6 12:37:04 10° SSW 12:41:48 71° WNW 12:46:34 10° NNE
Cosmos 1933 Rocket 4.2 12:37:49 10° S 12:42:01 55° E 12:46:16 10° NNE
NOAA 12 4.1 12:37:01 10° N 12:42:09 57° WNW 12:47:16 10° SSW
Cosmos 1825 4.2 12:40:36 10° NNE 12:42:56 21° ENE 12:45:17 10° SE
Cosmos 1943 3.7 12:40:31 10° NNW 12:46:04 58° ENE 12:51:33 10° SE
Cosmos 1464 Rocket 4.0 12:40:25 10° SSW 12:46:36 64° W 12:52:54 10° N
IRS-1C 4.3 12:42:31 10° NNE 12:47:51 75° ESE 12:53:09 10° S
Cosmos 1300 2.3 12:46:29 10° SSW 12:49:45 55° W 12:53:02 10° N
Cosmos 2034 Rocket 3.9 12:46:31 10° S 12:52:46 86° W 12:58:58 10° N
Cosmos 2263 Rocket 3.9 12:55:45 14° NNW 12:55:45 14° NNW 12:57:20 10° NNW
Cosmos 1703 Rocket 4.0 12:53:57 10° N 12:58:18 64° E 13:02:34 10° SSE
Cosmos 2228 Rocket 3.9 12:58:03 25° WNW 12:59:28 30° W 13:03:21 10° SSW
Centaur D AC-25 4.5 12:58:46 12° WSW 13:00:48 14° SW 13:03:02 10° S
SL-16 R/B 3.0 12:59:27 22° WNW 13:01:44 29° WSW 13:06:32 10° SSW
ADEOS Rocket 3.1 12:58:01 10° N 13:04:05 64° WNW 13:10:49 10° SSW
Cosmos 1892 3.8 13:03:12 10° N 13:06:19 38° E 13:09:24 10° SSE
Cosmos 1814 Rocket 4.0 13:03:03 10° NNW 13:08:18 64° WSW 13:13:28 10° S
SMAP 3.7 13:09:17 10° NNE 13:13:54 61° E 13:18:29 10° S
Okean 1-7 3.5 13:11:55 10° NNW 13:15:44 35° W 13:19:32 10° SSW
Cosmos 1703 3.2 13:16:25 10° NNW 13:19:49 46° W 13:23:13 10° SSW
COSMO-SKYMED 1 3.7 13:16:30 10° SSW 13:19:58 23° W 13:23:26 10° NW
Cosmos 1844 Rocket 2.9 13:17:39 10° SW 13:23:04 49° WNW 13:28:29 10° N
USA 290 2.1 13:20:12 10° SSW 13:23:19 65° WNW 13:26:29 10° NNE
Cosmos 371 Rocket 4.3 13:20:13 10° WSW 13:24:04 23° WNW 13:27:57 10° NNW
CZ-2D R/B 3.2 13:22:17 10° N 13:26:18 82° WNW 13:30:12 10° SSW
Cosmos 1603 4.0 13:21:23 10° NNW 13:27:08 73° ENE 13:32:51 10° SSE
Meteor 2-12 Rocket 4.4 13:21:07 10° N 13:27:16 73° W 13:33:22 10° S
OAO 2 Rocket 3.8 13:23:17 10° WSW 13:28:04 57° SSE 13:32:53 10° E
Cosmos 1455 1.6 13:25:03 10° S 13:28:11 74° W 13:31:22 10° N
BREEZE-M DEB (TANK) 4.2 13:22:32 10° NW 13:32:16 84° SW 13:35:36 10° SE
Meteor 1-15 Rocket 4.4 13:26:31 10° SSW 13:32:20 60° W 13:38:11 10° N
SJ-6F 4.5 13:29:27 10° N 13:33:28 55° WNW 13:37:28 10° SSW
Cosmos 1437 Rocket 2.5 13:30:09 10° NNW 13:33:38 59° W 13:37:06 10° S
YAOGAN 11 4.5 13:29:36 10° S 13:33:42 42° W 13:37:47 10° NNW
Cosmos 405 Rocket 3.9 13:31:43 10° WSW 13:34:06 17° WNW 13:36:29 10° NNW
Meteor 1-12 Rocket 4.3 13:28:37 10° S 13:34:18 89° W 13:39:58 10° N
Cosmos 1733 Rocket 4.3 13:30:37 10° SSE 13:34:41 45° E 13:38:48 10° NNE
IGS 5A 3.9 13:31:17 10° NNE 13:35:16 65° E 13:39:14 10° S
Cosmos 1758 3.9 13:32:18 10° SW 13:35:36 29° W 13:38:57 10° NNW
Cosmos 1570 Rocket 4.3 13:30:33 10° NNW 13:35:50 72° ENE 13:41:04 10° SSE
Cosmos 2026 Rocket 4.0 13:31:10 10° N 13:37:22 77° W 13:43:27 10° S
AQUARIUS 4.4 13:33:34 10° NNE 13:38:00 76° E 13:42:25 10° S
Cosmos 158 Rocket 3.8 13:33:47 10° NNW 13:38:39 81° WSW 13:43:29 10° SSE
TRACE 4.1 13:38:10 10° S 13:41:17 77° WSW 13:44:25 10° NNW
Cosmos 2242 Rocket 4.5 13:37:04 10° N 13:41:31 54° E 13:45:55 10° SSE
Cosmos 2208 Rocket 4.4 13:45:48 10° NNW 13:51:02 73° ENE 13:56:20 10° SSE
ARIANE 5 R/B 3.5 13:47:18 10° NNW 13:51:23 25° WNW 13:55:25 10° WSW
